Location: Newark
(26.8229°N, 81.7649°W)
Time: 18:32:25
(UTC+00:00)

First-Move - Visible Passes

Search period start: 10 April 2020 00:00
Search period end: 20 April 2020 00:00
Orbit: 576 x 669 km, 97.6° (Epoch: 09 April)

Date Brightness Start Highest point End Pass type
(mag) Time Alt. Az. Time Alt. Az. Time Alt. Az.
12 Apr ? 10:23:54 10° NE 10:26:32 17° E 10:29:11 10° SE visible
13 Apr ? 10:41:08 10° NE 10:44:41 28° E 10:48:16 10° SSE visible
17 Apr ? 10:18:32 10° ENE 10:20:50 14° E 10:23:07 10° SE visible
18 Apr ? 10:35:35 10° NE 10:38:59 25° E 10:42:26 10° SSE visible
